Retour au catalogue

PSLV DEB

ActifPO
NORAD 34221·DEBRIS·🇮🇳 India

Lancé Oct 22, 2001 depuis Satish Dhawan Space Centre

Loading…

Prochains Passages (prochaines 24 heures)

TLE

FraisSource: Space-Track

Époque: Sep 14, 2026, 14:38 UTC

1 34221U 01049PR  26257.61001175  .00001860  00000-0  10608-3 0  9992
2 34221  98.5080 211.9047 0039308 196.2097 163.7877 15.13694570327906

Suivez PSLV DEB en temps réel avec AllMySat

Download on the App Store